Regional Weather Roundup
Issued by NWS

Home | Current Version | Previous Version | Text Only | Print | Product List | Glossary Off
Versions: 1 2 3 4 5 6 7 8 9 10 11 12 13 14 15 16 17 18 19 20 21 22 23 24 25 26 27 28 29 30 31 32 33 34 35 36 37 38 39 40 41 42 43 44 45 46 47 48 49 50

000
ASUS43 KOAX 021510
RWRNE

WEATHER ROUNDUP FOR NEBRASKA
NATIONAL WEATHER SERVICE OMAHA NE
1000 AM CDT TUE SEP 02 2014

NOTES: SATELLITE DATA IS BEING USED TO AUGMENT CLOUD COVER ABOVE
       12000 FEET.
       "FAIR" INDICATES FEW OR NO CLOUDS BELOW 12,000 FEET WITH NO
       SIGNIFICANT WEATHER AND/OR OBSTRUCTIONS TO VISIBILITY.

  * THESE STATIONS DO NOT REPORT WEATHER SUCH AS RAIN...SNOW OR FOG.

NEZ001>004-019>022-054>056-021600-
NEBRASKA PANHANDLE

CITY           SKY/WX    TMP DP  RH WIND       PRES   REMARKS
SCOTTSBLUFF    SUNNY     59  51  75 E6        30.06F
ALLIANCE       SUNNY     59  51  75 S6        30.05F
CHADRON        SUNNY     61  51  70 NE3       29.99F
KIMBALL        SUNNY     64  45  50 SW7       30.10S
SIDNEY         SUNNY     64  51  62 SW9       30.10S
$$

NEZ057>060-069>072-079>082-021600-
SOUTHWEST NEBRASKA

CITY           SKY/WX    TMP DP  RH WIND       PRES   REMARKS
NORTH PLATTE   SUNNY     60  54  80 CALM      30.08R
IMPERIAL       CLOUDY    60  54  80 SW5       30.09S
LEXINGTON      SUNNY     62  58  87 CALM      30.07S
MCCOOK         SUNNY     65  57  75 SW3       30.08R
OGALLALA       SUNNY     57  52  85 W3        30.08S
$$

NEZ005>010-023>029-035>040-094-021600-
NORTH CENTRAL NEBRASKA

CITY           SKY/WX    TMP DP  RH WIND       PRES   REMARKS
VALENTINE      SUNNY     60  53  77 SW10      30.01R
AINSWORTH      SUNNY     63  53  69 SW7       30.02R
BROKEN BOW     SUNNY     62  55  77 SW3       30.04S
O`NEILL        SUNNY     66  56  69 W6        30.00S
ORD            SUNNY     64  55  72 N5        30.02S
THEDFORD       SUNNY     64  54  71 W3        30.05S
$$

NEZ041-046>049-061>064-073>077-083>087-021600-
SOUTH CENTRAL NEBRASKA

CITY           SKY/WX    TMP DP  RH WIND       PRES   REMARKS
GRAND ISLAND   SUNNY     66  56  70 W6        30.06S
AURORA         SUNNY     64  57  77 NW5       30.05S
HASTINGS       SUNNY     67  55  65 NW5       30.05S
HEBRON         SUNNY     67  55  65 N7        30.03S
HOLDREGE       SUNNY     64  58  81 CALM      30.07S
KEARNEY *      SUNNY     64  55  72 NW3       30.07S
YORK           SUNNY     64 N/A N/A NW6       30.04S
$$

NEZ011>018-030>034-042>045-021600-
NORTHEAST NEBRASKA

CITY           SKY/WX    TMP DP  RH WIND       PRES   REMARKS
NORFOLK        SUNNY     66  56  70 NW6       30.01R
ALBION         SUNNY     60  56  88 CALM      30.03R
BLAIR          SUNNY     65  59  82 SW5       30.01S
FREMONT        SUNNY     66  58  75 W6        30.02S
TEKAMAH        SUNNY     65  59  81 S5        30.01R
WAYNE          SUNNY     65  59  81 S6        30.01R
$$

NEZ050>053-065>068-078-088>093-021600-
SOUTHEAST NEBRASKA

CITY           SKY/WX    TMP DP  RH WIND       PRES   REMARKS
LINCOLN        SUNNY     68  58  70 CALM      30.03S
OMAHA EPPLEY   MOSUNNY   68  58  70 NW6       30.01S
BEATRICE       SUNNY     67  58  72 N5        30.02S
FALLS CITY     MOSUNNY   71  63  75 VRB5      29.99R
NEBRASKA CITY  SUNNY     67  59  75 NW8       30.00S
PLATTSMOUTH    SUNNY     67  59  76 NW8       30.01S
$$

NEZ044-045-051>053-067-021600-
OMAHA AREA

CITY           SKY/WX    TMP DP  RH WIND       PRES   REMARKS
OMAHA EPPLEY   MOSUNNY   68  58  70 NW6       30.01S
BLAIR          SUNNY     65  59  82 SW5       30.01S
FREMONT        SUNNY     66  58  75 W6        30.02S
MILLARD        SUNNY     67  58  72 NW5       30.01S
OFFUTT AFB     SUNNY     67  63  87 NW6       30.00F
PLATTSMOUTH    SUNNY     67  59  76 NW8       30.01S
WAHOO          FAIR      66  56  70 W5        30.02S
$$



USA.gov is the U.S. government's official web portal to all federal, state and local government web resources and services.